Wind_Speed
36 36 36 36 36 36 37 37 36 36 36 36 35 35 35 35 35 34 33 33 33 33 33 33 33 32 32 31 30 29 28 28 27 28 27 26 25 25 24 24 24 24
38 38 38 38 38 39 39 39 39 38 38 37 37 37 36 36 35 35 34 34 34 34 35 35 34 34 33 33 32 31 30 30 29 30 29 28 28 27 26 27 26 25
37 38 40 41 41 41 41 41 40 40 40 39 38 37 37 36 36 35 35 35 35 35 36 36 36 36 35 34 34 33 32 32 31 31 30 30 29 29 29 30 28 26
35 36 39 41 42 42 42 42 42 42 42 41 40 39 38 37 37 36 35 35 35 35 36 37 37 37 37 36 36 35 34 34 34 33 32 31 30 30 31 31 30 29
33 34 35 37 39 41 42 42 43 43 43 43 42 41 40 39 38 37 36 36 36 36 37 37 38 38 38 38 37 37 36 36 36 35 34 33 32 32 32 32 31 31
32 33 34 35 37 39 40 41 41 42 42 42 42 42 41 41 40 39 38 37 37 37 37 37 38 39 39 39 38 38 38 37 37 37 36 35 34 34 33 33 33 32
34 35 36 36 38 39 39 38 39 39 40 40 41 41 41 41 41 40 40 39 38 38 37 38 38 39 39 39 39 39 38 38 38 38 37 36 36 35 35 35 35 34
37 37 38 39 39 39 38 37 37 37 38 39 40 41 41 41 41 41 40 40 39 38 38 38 38 38 39 39 39 39 39 39 39 39 39 37 37 37 36 36 36 36
39 38 39 38 39 39 38 36 36 36 35 36 38 40 41 42 41 41 40 39 38 38 37 37 38 38 38 39 39 39 39 39 39 39 39 38 38 39 38 37 36 36
41 41 40 39 39 39 38 36 35 34 32 32 34 36 38 40 40 40 40 39 38 38 37 37 38 38 38 38 38 38 38 38 39 39 39 38 39 40 39 39 38 38
43 45 45 43 40 39 38 38 37 35 33 33 34 34 35 37 39 39 39 39 39 38 38 38 39 39 39 40 40 40 39 39 39 39 39 40 41 41 40 40 40 39
43 45 46 44 41 39 39 39 39 38 36 35 35 36 37 38 39 40 40 40 39 40 40 40 40 40 41 41 42 42 42 41 41 41 41 41 41 41 41 42 42 42
44 44 44 44 43 41 41 40 39 39 39 38 36 36 37 38 39 41 41 42 41 42 42 42 42 42 42 42 43 43 43 43 43 43 43 43 43 43 43 44 45 45
44 43 42 43 43 42 42 41 39 39 40 40 38 36 36 37 37 39 40 41 41 42 43 43 43 43 42 42 43 43 43 42 42 41 41 42 43 44 45 46 47 48
41 40 39 39 39 40 41 40 39 39 40 39 38 37 36 35 36 36 37 38 39 40 41 42 41 41 41 41 41 41 41 40 39 39 39 39 40 41 43 45 47 49
34 33 34 34 34 35 37 37 38 39 39 39 39 38 37 36 36 37 38 39 39 39 39 40 40 40 40 40 40 40 39 39 38 38 38 38 38 39 40 43 45 48
27 28 30 30 30 31 33 35 37 38 38 39 39 39 39 37 37 38 39 40 40 39 38 38 39 39 39 40 40 40 40 39 38 38 38 38 39 39 39 41 43 45
22 25 27 28 29 30 32 34 36 37 38 39 40 39 38 38 38 38 39 39 39 38 37 38 39 39 40 41 41 40 39 38 38 39 39 40 40 41 41 41 42 43
22 24 26 27 28 30 31 33 35 36 37 38 38 38 38 38 37 36 35 35 35 36 36 37 38 40 40 41 41 40 39 38 39 40 41 42 43 43 43 43 43 43
24 25 26 27 28 30 31 32 34 36 36 37 37 37 37 36 35 33 32 33 33 34 35 36 37 38 39 39 39 39 39 40 40 41 42 44 45 45 45 45 45 45
26 27 27 28 29 30 31 32 33 34 34 35 35 35 35 34 33 32 32 33 33 34 35 36 37 38 39 39 40 40 41 42 43 44 45 46 47 47 47 47 47 46
29 29 29 29 30 31 31 31 32 33 34 34 34 35 34 34 34 34 35 36 36 37 38 39 40 41 42 42 43 44 45 46 47 47 48 48 49 49 49 49 48 48
32 32 32 31 31 31 31 31 32 33 35 35 35 36 36 36 36 36 37 38 38 40 41 41 42 44 44 45 45 46 47 48 48 49 49 49 50 50 50 50 50 49
29 32 33 34 34 34 34 34 34 36 38 38 38 37 37 37 37 36 36 37 37 39 40 41 42 44 45 45 45 45 46 47 47 48 48 49 50 50 51 52 52 51
24 26 29 32 33 35 35 34 34 37 39 39 39 38 37 36 34 33 33 34 35 37 38 39 41 42 43 44 44 45 46 47 47 48 49 49 50 51 52 52 53 54
22 24 26 27 29 31 31 31 32 34 35 35 35 35 34 32 31 31 33 34 35 36 37 38 40 41 42 43 43 44 45 46 47 48 49 49 50 51 51 52 52 53
Wind_Direction
234 235 235 236 237 237 238 238 239 241 243 244 245 247 249 250 250 249 248 247 247 248 248 248 248 250 252 253 254 254 254 254 255 256 254 252 250 250 250 250 250 251
237 235 235 235 236 237 237 238 238 239 240 242 243 245 247 248 249 250 250 249 249 249 250 250 249 249 251 253 255 256 255 255 255 256 256 255 254 253 253 252 251 250
240 237 235 235 235 236 238 238 239 239 240 241 242 243 245 246 248 248 248 249 249 249 250 251 251 250 250 252 253 254 255 256 256 255 256 256 256 255 254 253 253 252
242 239 238 237 237 237 238 239 240 241 241 242 242 242 243 244 245 246 247 247 247 248 249 249 250 250 251 252 252 253 254 255 256 256 256 255 256 256 256 255 255 254
243 242 242 242 240 239 238 238 238 239 240 241 242 243 243 244 244 245 246 246 246 247 247 248 249 250 250 251 252 253 254 254 255 256 256 255 255 256 258 258 257 256
244 244 245 245 243 241 240 240 239 239 240 241 242 243 244 244 245 245 246 246 246 247 247 248 249 249 250 250 250 251 253 255 255 256 256 256 256 256 257 258 257 255
244 245 245 245 244 243 243 243 242 242 242 242 242 243 245 245 246 246 247 247 248 248 248 248 248 249 250 250 249 249 250 252 254 256 256 257 257 257 256 256 256 255
241 241 243 243 244 244 244 244 245 246 246 246 245 245 245 246 246 247 247 248 249 250 250 250 250 250 250 250 250 249 248 249 250 252 255 256 257 257 256 255 255 255
244 243 244 245 244 244 245 246 249 249 250 251 251 249 248 247 247 247 246 247 248 249 251 252 252 252 251 251 251 250 249 249 249 249 252 254 256 256 256 255 254 253
256 253 251 249 247 245 246 249 251 251 252 255 256 254 250 248 247 247 246 245 245 246 248 250 252 253 253 253 252 252 251 250 249 249 249 251 253 255 256 255 254 253
259 257 254 253 251 250 250 252 253 252 254 256 257 255 251 248 247 247 247 246 245 245 246 248 250 251 252 253 254 254 253 252 251 251 250 249 250 253 255 256 255 254
255 256 257 256 255 254 253 254 255 254 255 256 256 254 252 249 248 247 247 247 247 248 248 248 249 250 251 253 253 254 254 254 254 253 252 251 251 252 254 255 256 256
254 256 257 256 256 256 255 254 257 258 257 257 256 255 253 252 251 250 249 249 250 251 251 251 251 252 252 253 254 255 255 255 255 255 254 254 254 253 253 254 255 256
253 257 256 253 254 256 255 255 257 259 258 257 257 256 255 255 255 254 252 252 252 252 252 252 252 253 254 255 256 256 256 256 256 256 256 256 256 255 255 254 255 257
251 255 255 252 252 254 254 254 256 257 256 256 256 257 256 255 255 256 256 256 255 253 252 252 253 253 254 256 256 257 257 257 257 258 258 258 258 258 257 256 256 257
251 253 252 251 252 253 252 253 255 256 256 255 256 257 258 257 258 259 260 261 260 258 255 253 253 254 255 256 256 257 257 257 258 259 259 259 259 259 259 259 258 257
255 254 253 252 252 252 250 251 253 255 257 258 258 260 262 263 264 264 263 263 262 260 258 256 256 257 257 257 257 257 256 256 257 259 259 259 259 259 259 260 259 258
256 255 254 253 252 251 250 251 253 256 257 259 261 263 265 267 267 265 263 261 260 259 258 257 258 259 259 259 258 257 256 256 256 258 259 259 259 259 259 260 260 260
256 254 253 253 252 252 252 252 254 256 258 260 262 264 266 267 266 264 263 261 260 259 259 259 259 260 260 260 259 259 258 257 257 257 258 259 259 259 259 260 260 261
258 255 253 252 252 252 252 253 254 256 259 261 262 264 264 264 264 263 263 262 261 260 260 260 259 259 259 259 259 260 260 259 259 259 259 259 259 260 260 260 260 260
259 256 254 253 253 252 252 253 254 257 259 261 262 263 263 263 263 263 262 262 261 261 260 260 260 260 259 259 260 260 260 260 260 260 260 260 260 261 261 260 260 259
260 258 256 255 254 254 255 255 256 258 259 261 262 263 263 263 264 265 265 266 265 264 263 263 262 262 261 261 261 261 261 261 261 261 261 261 261 261 260 260 259 258
261 260 259 258 258 258 258 258 259 260 261 263 263 264 265 266 267 268 270 270 271 270 270 269 269 268 266 265 264 263 263 262 262 262 261 261 261 261 260 259 258 257
266 265 264 263 262 262 262 263 264 265 265 266 267 268 269 269 270 270 271 272 272 272 272 272 272 271 270 269 267 266 264 263 262 262 262 262 262 261 261 260 258 256
276 273 270 267 265 264 265 266 266 266 266 267 268 269 269 269 269 269 269 269 269 269 270 270 271 270 270 269 268 267 265 264 263 262 262 262 262 262 262 261 259 256
279 278 276 274 271 268 266 264 262 263 266 267 267 267 267 266 266 266 265 265 266 267 267 268 268 268 268 268 267 266 265 264 263 262 262 262 262 262 262 262 260 257
Height
5785 5786 5786 5787 5787 5788 5789 5789 5790 5791 5792 5793 5794 5794 5795 5796 5796 5798 5799 5800 5800 5800 5801 5802 5803 5803 5804 5805 5806 5807 5807 5808 5808 5808 5808 5809 5809 5810 5811 5811 5812 5812
5781 5782 5782 5782 5783 5783 5784 5785 5786 5787 5788 5789 5790 5790 5791 5791 5792 5793 5794 5795 5796 5796 5797 5797 5798 5799 5800 5801 5802 5803 5803 5804 5804 5804 5804 5805 5806 5807 5807 5807 5808 5809
5777 5777 5778 5778 5778 5779 5780 5781 5782 5783 5784 5785 5786 5786 5787 5787 5788 5789 5790 5791 5791 5792 5793 5793 5794 5795 5796 5797 5798 5798 5799 5799 5799 5800 5800 5801 5802 5803 5803 5803 5804 5805
5772 5773 5773 5774 5775 5775 5776 5777 5778 5779 5780 5780 5781 5782 5782 5783 5783 5784 5785 5786 5787 5787 5788 5789 5790 5790 5791 5792 5793 5794 5794 5795 5795 5795 5796 5797 5798 5799 5799 5800 5801 5802
5767 5769 5769 5770 5771 5772 5772 5773 5773 5774 5775 5776 5777 5777 5778 5778 5779 5779 5780 5781 5782 5782 5783 5784 5785 5786 5787 5787 5788 5789 5790 5790 5790 5791 5792 5793 5794 5794 5795 5796 5797 5798
5762 5764 5765 5766 5767 5767 5768 5769 5769 5770 5771 5771 5772 5773 5773 5774 5774 5774 5775 5776 5776 5777 5778 5779 5780 5781 5782 5783 5784 5785 5785 5786 5786 5786 5787 5788 5789 5790 5791 5792 5793 5794
5757 5758 5759 5760 5761 5762 5763 5765 5765 5766 5767 5767 5768 5768 5769 5769 5770 5770 5770 5771 5772 5772 5773 5774 5775 5776 5777 5778 5779 5780 5781 5781 5781 5781 5782 5783 5785 5786 5787 5787 5788 5789
5752 5752 5753 5754 5755 5756 5758 5759 5760 5761 5762 5763 5763 5764 5764 5765 5765 5766 5766 5766 5767 5768 5768 5769 5770 5771 5772 5773 5774 5775 5776 5776 5777 5777 5777 5778 5779 5780 5781 5782 5783 5784
5747 5748 5748 5749 5750 5751 5752 5754 5755 5756 5757 5758 5759 5759 5760 5760 5760 5761 5761 5762 5762 5763 5763 5764 5765 5766 5767 5768 5769 5770 5771 5772 5772 5772 5772 5773 5774 5775 5776 5777 5778 5779
5744 5745 5746 5746 5747 5747 5748 5749 5750 5751 5753 5754 5754 5755 5755 5755 5756 5756 5757 5757 5757 5758 5758 5759 5760 5761 5762 5763 5764 5765 5766 5767 5768 5768 5768 5769 5769 5770 5771 5772 5773 5774
5739 5740 5740 5742 5743 5745 5746 5746 5746 5747 5748 5749 5749 5750 5751 5751 5752 5752 5753 5753 5753 5753 5754 5754 5754 5755 5756 5757 5759 5760 5761 5763 5763 5764 5764 5765 5765 5766 5766 5767 5767 5768
5733 5734 5735 5737 5739 5741 5741 5741 5741 5743 5744 5744 5745 5745 5746 5747 5747 5748 5748 5749 5749 5749 5750 5750 5750 5750 5751 5752 5753 5755 5756 5757 5759 5759 5760 5760 5761 5761 5762 5762 5762 5763
5727 5728 5730 5732 5734 5735 5736 5736 5737 5738 5739 5739 5739 5740 5741 5742 5742 5743 5744 5745 5745 5745 5745 5746 5746 5746 5747 5747 5748 5750 5751 5752 5754 5754 5755 5756 5756 5757 5757 5758 5758 5758
5722 5723 5725 5727 5729 5731 5731 5731 5733 5734 5734 5734 5734 5734 5735 5736 5737 5738 5739 5740 5740 5741 5741 5741 5742 5742 5742 5743 5744 5745 5746 5747 5748 5749 5750 5751 5751 5752 5752 5753 5753 5753
5717 5719 5720 5722 5724 5725 5726 5727 5728 5728 5728 5729 5728 5729 5730 5731 5732 5733 5734 5735 5736 5736 5736 5736 5737 5737 5737 5738 5739 5740 5741 5742 5743 5744 5744 5745 5746 5746 5747 5747 5748 5748
5712 5714 5715 5717 5719 5720 5721 5722 5722 5722 5723 5723 5723 5724 5725 5726 5727 5728 5729 5730 5730 5731 5731 5731 5731 5732 5733 5733 5734 5735 5736 5737 5737 5738 5739 5739 5740 5740 5741 5741 5742 5743
5708 5710 5711 5713 5714 5715 5716 5716 5717 5717 5717 5717 5718 5719 5720 5722 5722 5723 5724 5724 5725 5725 5725 5726 5726 5727 5727 5728 5729 5730 5731 5732 5732 5732 5733 5733 5734 5734 5735 5736 5736 5737
5705 5706 5707 5709 5710 5710 5711 5711 5712 5712 5712 5713 5713 5714 5716 5717 5717 5718 5718 5719 5719 5719 5719 5720 5721 5721 5722 5723 5724 5725 5726 5726 5727 5727 5727 5727 5728 5729 5730 5730 5731 5731
5703 5703 5704 5705 5705 5706 5706 5707 5707 5708 5708 5708 5709 5709 5711 5712 5712 5713 5713 5713 5713 5713 5714 5714 5715 5715 5716 5717 5718 5719 5720 5720 5721 5721 5721 5722 5722 5723 5724 5725 5726 5726
5700 5701 5701 5701 5702 5702 5702 5703 5703 5704 5704 5704 5705 5705 5706 5707 5708 5708 5708 5708 5708 5708 5709 5709 5709 5710 5710 5711 5712 5713 5714 5714 5715 5715 5716 5716 5716 5717 5718 5719 5720 5721
5697 5698 5698 5698 5698 5698 5699 5700 5700 5700 5700 5700 5701 5701 5702 5702 5703 5703 5703 5703 5703 5703 5704 5704 5704 5704 5705 5706 5707 5707 5708 5708 5709 5709 5709 5710 5710 5710 5712 5713 5714 5715
5693 5694 5694 5694 5695 5695 5696 5697 5697 5697 5696 5697 5697 5697 5697 5698 5698 5698 5698 5698 5698 5698 5699 5699 5699 5699 5699 5700 5701 5701 5702 5702 5702 5703 5703 5703 5703 5704 5704 5705 5707 5708
5689 5689 5690 5691 5691 5692 5693 5693 5693 5692 5692 5692 5693 5693 5693 5693 5693 5693 5693 5693 5693 5693 5693 5693 5693 5693 5693 5694 5694 5695 5695 5695 5695 5695 5696 5696 5696 5696 5697 5698 5699 5701
5685 5685 5686 5687 5687 5688 5688 5689 5689 5687 5687 5687 5688 5688 5688 5688 5688 5688 5688 5688 5688 5687 5687 5687 5687 5686 5687 5687 5687 5688 5688 5688 5688 5688 5688 5689 5689 5689 5690 5691 5691 5693
5682 5682 5682 5682 5682 5682 5683 5684 5683 5682 5681 5682 5682 5683 5683 5683 5683 5684 5683 5683 5683 5683 5683 5682 5682 5682 5681 5681 5682 5682 5681 5681 5681 5682 5681 5682 5682 5682 5682 5683 5684 5685
5679 5679 5678 5678 5678 5678 5679 5679 5678 5677 5677 5678 5678 5678 5679 5679 5679 5679 5679 5679 5679 5679 5679 5678 5677 5677 5676 5676 5676 5676 5675 5675 5675 5675 5675 5675 5675 5675 5675 5676 5676 5677